DW9848 Weather Reports


Display with metric or nautical units.
time (UTC)temp
F
wind
direction
speed
MPH
gust
MPH
rain 1hr
in
rain 24hr
in
rain mn
in
humidity
%
barometer
mb
20260506200010 53 58 1.0 3.0 0.00 0.00 0.00 76 998.5
20260506194511 53 84 1.0 4.0 0.00 0.00 0.00 76 998.4
20260506193009 53 38 2.0 6.0 0.00 0.00 0.00 76 998.1
20260506191508 53 355 2.0 5.0 0.00 0.00 0.00 76 997.9
20260506190007 54 34 0.0 2.0 0.00 0.00 0.00 76 997.8
20260506184505 54 339 0.0 2.0 0.00 0.00 0.00 76 997.5
20260506183005 54 79 0.0 4.0 0.00 0.00 0.00 76 996.8
20260506181505 55 73 1.0 8.0 0.00 0.00 0.00 76 996.2
20260506180006 56 55 2.0 7.0 0.00 0.00 0.00 76 996.0
20260506174502 56 96 4.0 7.0 0.00 0.00 0.00 76 996.2
20260506173002 57 39 0.0 2.0 0.00 0.00 0.00 76 996.9
20260506171503 58 39 0.0 2.0 0.00 0.00 0.00 76 996.8
20260506170100 58 44 1.0 3.0 0.00 0.00 0.00 76 996.2
20260506164600 59 76 0.0 2.0 0.00 0.00 0.00 76 995.9
20260506163059 59 76 0.0 6.0 0.00 0.00 0.00 76 995.8
20260506161606 59 41 2.0 6.0 0.00 0.00 0.00 76 995.6
20260506160058 60 31 2.0 9.0 0.00 0.00 0.00 76 995.3
20260506154557 60 355 4.0 12.0 0.00 0.00 0.00 75 994.7
20260506153054 61 360 2.0 10.0 0.00 0.00 0.00 75 995.0
20260506151605 62 57 5.0 12.0 0.00 0.00 0.00 74 995.1
20260506150053 62 22 4.0 11.0 0.00 0.00 0.00 73 995.1
20260506144557 61 65 4.0 12.0 0.00 0.00 0.00 74 995.4
20260506143056 61 27 6.0 15.0 0.00 0.00 0.00 74 995.5
20260506141551 61 68 5.0 11.0 0.00 0.00 0.00 74 995.6
20260506134550 63 57 7.0 12.0 0.00 0.00 0.00 72 995.6
20260506133051 63 5 4.0 11.0 0.00 0.00 0.00 74 995.6
20260506131552 62 30 4.0 11.0 0.00 0.00 0.00 75 995.6
20260506130058 61 17 4.0 9.0 0.00 0.00 0.00 76 995.8
20260506124545 60 360 3.0 8.0 0.00 0.00 0.00 76 995.9
20260506123045 60 298 3.0 9.0 0.00 0.00 0.00 76 995.6
20260506121544 63 255 3.0 10.0 0.00 0.00 0.00 75 995.6
20260506120043 64 69 2.0 6.0 0.00 0.00 0.00 75 995.4
20260506114545 64 248 3.0 9.0 0.00 0.00 0.00 74 995.4
20260506113041 65 205 4.0 9.0 0.00 0.00 0.00 75 995.3
20260506111539 61 198 3.0 10.0 0.00 0.00 0.00 76 995.5
20260506110039 61 50 3.0 7.0 0.00 0.00 0.00 76 995.5
20260506104534 61 224 0.0 8.0 0.00 0.00 0.00 76 995.9
20260506103034 61 125 3.0 11.0 0.00 0.00 0.00 76 995.9
20260506101546 60 98 2.0 6.0 0.00 0.00 0.00 76 996.0
20260506100028 59 54 1.0 8.0 0.00 0.00 0.00 76 996.1
20260506094528 59 101 5.0 10.0 0.00 0.00 0.00 76 995.9
20260506093025 59 82 2.0 10.0 0.00 0.00 0.00 76 995.9
20260506091524 58 88 4.0 10.0 0.00 0.00 0.00 76 995.7
20260506090020 57 81 4.0 10.0 0.00 0.00 0.00 76 995.9
20260506084519 56 63 4.0 11.0 0.00 0.00 0.00 76 995.9
20260506083013 56 78 3.0 10.0 0.00 0.00 0.00 76 995.9
20260506081512 56 86 5.0 9.0 0.00 0.00 0.00 76 996.0
20260506073005 56 78 4.0 11.0 0.00 0.00 0.00 76 996.3
20260506071502 56 272 0.0 2.0 0.00 0.00 0.00 76 996.4
20260506070104 56 78 2.0 7.0 0.00 0.00 0.00 76 996.4
20260506061557 56 65 0.0 4.0 0.00 0.00 0.00 76 996.8
20260506044544 55 74 0.0 3.0 0.00 0.00 0.00 76 997.1
20260506043043 55 209 0.0 4.0 0.00 0.00 0.00 76 997.3
20260506041555 55 74 1.0 6.0 0.00 0.00 0.00 76 997.5
20260506040038 54 104 0.0 1.0 0.00 0.00 0.00 76 997.6
20260506034536 54 104 0.0 8.0 0.00 0.00 0.00 76 997.6
20260506033034 54 50 0.0 2.0 0.00 0.00 0.00 76 997.6
20260506031534 54 50 0.0 3.0 0.00 0.00 0.00 76 997.7
20260506030035 54 31 1.0 4.0 0.00 0.00 0.00 76 997.7
20260506024532 54 48 1.0 3.0 0.00 0.00 0.00 76 998.1
20260506023026 54 61 0.0 2.0 0.00 0.00 0.00 76 998.6
20260506021526 54 37 0.0 2.0 0.00 0.00 0.00 76 998.8
20260506020026 54 37 0.0 0.0 0.00 0.00 0.00 76 998.7
20260506014532 54 37 0.0 2.0 0.00 0.00 0.00 76 998.8
20260506013028 54 37 0.0 1.0 0.00 0.00 0.00 76 998.8
20260506011523 54 37 0.0 0.0 0.00 0.00 0.00 76 998.8
20260506010025 54 30 0.0 0.0 0.00 0.00 0.00 76 999.2
20260506004528 54 30 0.0 0.0 0.00 0.00 0.00 76 999.3
20260506003016 54 30 0.0 2.0 0.00 0.00 0.00 76 999.6
20260506001516 54 30 0.0 2.0 0.00 0.00 0.00 76 999.7
20260506000019 54 30 0.0 3.0 0.00 0.00 0.00 76 999.6
20260505234517 54 31 0.0 2.0 0.00 0.00 0.00 76 999.8
20260505233011 54 27 0.0 3.0 0.00 0.00 0.00 76 1000.1
20260505231510 54 34 0.0 2.0 0.00 0.00 0.00 76 1000.3
20260505230014 54 34 0.0 3.0 0.00 0.00 0.00 76 1000.1
20260505224507 54 34 0.0 2.0 0.00 0.00 0.00 76 1000.4